Wetbulb
64.00 61.42 63.63 59.65 50.10 47.47 43.04 45.75 50.92 50.39 52.34 55.68 52.90 52.53 52.85 53.19 52.03 48.49 61.18 63.71 65.57 67.02 69.61 69.80 70.23 71.56 70.64 70.40 69.21 68.58 67.42 67.21 67.10 67.13 67.13 66.89 66.54 66.63 66.48 66.13 66.25 66.36 66.58 66.77 66.70 66.25 66.07 65.90 66.06
62.40 60.61 59.69 55.93 46.26 41.13 42.36 47.90 48.56 51.51 54.57 56.14 56.35 55.38 54.00 52.05 57.37 58.73 60.41 64.98 66.88 68.08 69.25 69.34 69.56 70.92 70.53 70.27 69.56 68.95 67.81 67.07 66.93 66.96 66.85 66.63 66.50 66.37 66.35 66.31 66.29 66.53 66.63 66.52 65.99 65.80 65.89 66.02 66.29
60.21 60.01 53.75 51.48 46.71 41.37 42.19 47.12 49.62 52.73 55.47 56.75 55.22 56.28 55.42 54.93 58.52 59.98 63.39 65.28 67.52 67.97 68.84 68.84 69.66 70.88 70.61 70.31 69.72 69.18 68.20 67.15 66.98 66.84 66.59 66.67 66.32 66.58 66.46 66.42 66.45 66.48 66.30 65.78 65.73 65.78 65.95 66.15 66.41
56.80 54.96 52.81 46.86 44.42 47.10 46.72 49.24 51.86 53.08 56.55 57.16 56.25 53.62 56.91 59.36 59.65 62.14 65.34 65.93 66.95 67.21 68.11 68.61 70.10 70.95 70.68 70.46 70.05 69.42 67.70 67.05 66.67 66.76 66.96 66.56 66.62 66.42 66.14 66.47 65.86 66.03 65.11 65.51 65.85 65.98 66.13 66.28 66.66
55.03 51.50 45.54 44.04 44.64 48.44 50.75 51.91 53.06 52.31 54.68 55.07 55.67 53.46 54.54 59.17 62.18 63.89 64.66 65.54 65.59 66.64 67.48 68.79 69.55 70.29 70.28 70.23 70.20 69.70 68.82 67.29 66.71 66.69 66.68 66.74 66.46 66.58 66.46 65.62 64.56 65.10 65.43 65.57 65.76 65.84 66.03 66.53 66.87
51.66 49.91 42.80 40.78 44.21 49.00 51.45 53.25 53.27 53.26 53.90 54.88 54.56 53.78 54.68 60.67 62.18 62.87 64.72 64.88 66.11 66.17 67.55 68.66 67.13 68.36 69.11 69.41 69.55 69.61 69.13 68.15 66.75 66.30 66.67 66.48 66.38 66.62 66.06 64.61 65.20 65.08 64.83 65.31 65.70 65.98 66.43 66.82 66.81
50.22 47.47 44.35 43.31 42.99 45.38 49.50 53.32 52.40 52.56 53.65 54.63 56.69 52.83 55.55 58.99 62.29 63.39 63.96 65.07 65.96 66.44 67.44 68.51 69.38 68.03 66.28 67.47 67.80 68.39 68.15 67.31 66.65 66.30 66.32 66.41 66.05 65.72 65.39 65.63 64.69 64.55 64.82 65.19 65.49 65.85 66.33 66.62 66.35
52.78 49.64 45.24 45.24 43.45 44.41 50.60 53.31 55.04 53.50 52.83 58.35 58.26 53.08 53.20 58.84 62.04 62.62 63.98 64.49 64.70 65.45 66.06 67.08 68.07 68.50 68.54 68.07 64.39 64.93 65.65 65.76 65.48 65.15 64.58 63.94 64.34 64.59 63.84 62.42 63.79 64.20 64.30 64.56 64.99 65.41 65.70 66.03 65.07
55.38 45.90 42.53 44.91 45.19 46.30 50.73 50.70 54.49 56.90 56.04 57.03 58.07 56.21 57.57 61.62 62.19 61.68 62.23 62.27 63.21 64.09 65.09 65.54 65.98 66.32 66.26 65.95 63.11 62.92 63.24 63.50 63.33 63.10 61.77 61.77 63.53 63.04 62.37 61.48 63.02 64.05 64.11 64.28 65.26 66.60 65.15 64.07 62.24
48.53 44.22 44.21 49.51 50.16 48.18 49.95 50.24 51.81 53.06 54.59 55.15 56.66 56.02 59.98 61.16 60.48 59.10 59.82 59.18 60.73 61.92 63.94 64.67 64.63 64.45 64.49 63.86 63.79 63.92 63.33 63.78 63.30 63.13 62.71 62.17 62.32 62.79 62.72 60.59 60.76 61.91 61.53 63.82 65.83 63.30 61.55 61.02 59.69
47.44 43.35 47.82 49.19 51.41 50.73 49.13 48.98 51.84 51.39 49.97 54.65 55.57 55.04 57.89 59.27 59.56 58.73 59.61 59.53 59.82 61.65 63.65 63.51 63.00 62.97 63.05 62.26 61.77 61.97 61.92 61.59 61.50 61.52 61.85 62.45 62.70 63.08 63.61 63.09 63.68 64.08 61.20 65.14 63.34 60.20 58.68 57.04 57.01
40.97 44.89 47.78 49.30 50.98 50.88 48.85 50.81 49.73 51.02 51.66 55.22 56.09 56.30 58.03 57.45 58.56 59.29 59.11 58.80 59.26 60.89 62.77 62.26 61.74 61.76 61.70 61.56 60.61 60.81 60.41 60.43 60.79 61.42 62.19 63.15 62.59 62.44 62.98 63.59 64.79 65.38 63.86 61.49 59.40 57.43 55.61 54.60 54.99
38.59 41.86 44.64 46.86 49.16 50.39 50.86 49.27 49.13 49.23 53.21 57.20 56.14 56.57 57.57 58.40 59.21 60.22 60.29 59.85 59.49 59.75 61.68 61.95 61.04 61.18 60.79 60.58 60.28 60.44 60.05 60.57 61.83 62.70 63.77 62.69 62.38 62.80 63.81 64.77 62.94 59.76 59.61 58.35 56.75 54.00 52.35 53.22 53.30
40.29 40.16 41.26 43.93 47.07 47.75 47.94 49.05 49.70 50.39 53.00 53.38 54.56 55.24 57.32 58.36 59.34 59.06 59.38 59.00 59.10 59.60 60.53 61.96 60.74 61.01 60.68 60.18 60.38 60.50 60.96 61.92 62.84 63.15 63.68 62.74 63.19 63.71 64.13 60.15 57.28 56.99 56.86 56.06 53.77 50.50 50.26 50.88 53.89
40.71 36.39 37.98 39.29 43.47 46.24 49.50 45.60 46.65 51.56 52.30 51.86 54.01 54.08 56.23 58.08 59.38 58.94 59.17 59.01 59.09 59.59 60.63 61.23 60.74 60.50 60.55 60.43 61.03 61.57 61.96 62.48 62.65 62.49 63.39 63.23 64.21 63.08 59.86 57.00 54.38 54.46 54.77 52.41 49.44 48.83 50.24 51.32 50.65
35.68 35.94 30.57 38.35 40.63 44.11 46.48 39.47 46.65 51.57 50.98 51.32 54.56 54.10 54.20 56.89 58.97 59.84 59.76 59.43 59.49 59.62 59.71 61.07 61.36 60.02 60.36 60.36 61.27 61.82 62.48 62.75 62.49 63.06 63.54 63.97 61.25 59.36 56.48 53.67 51.73 52.90 52.14 50.70 48.45 48.54 48.89 48.54 47.31
33.01 26.47 29.39 33.76 41.24 43.71 44.33 40.80 47.47 50.37 50.54 50.41 51.89 54.68 54.12 54.72 57.50 59.19 58.99 59.44 59.23 59.79 59.88 59.89 60.93 59.65 60.08 60.11 61.44 62.05 62.03 61.11 60.12 59.49 58.83 58.16 56.79 55.48 52.91 50.29 49.17 51.28 49.86 47.71 46.40 45.74 47.90 46.31 44.49
23.05 27.01 29.61 30.53 38.19 40.44 40.11 41.40 45.81 48.24 49.33 49.64 51.02 53.67 54.99 54.55 55.45 57.73 59.23 58.94 58.44 59.07 60.06 60.32 60.39 59.88 60.53 61.13 60.91 57.19 55.53 54.75 54.84 54.19 54.02 53.71 52.79 51.38 49.39 47.32 47.09 48.39 47.30 45.19 44.78 45.32 45.38 45.14 43.30
28.86 27.16 27.46 32.88 37.52 39.18 40.19 41.50 44.18 47.20 47.28 47.68 49.26 52.61 53.61 54.68 56.67 57.65 59.30 58.93 57.74 58.61 58.80 59.30 59.53 59.32 60.25 58.87 57.10 55.23 53.71 51.87 50.72 51.49 51.26 50.53 49.51 48.23 46.64 45.22 45.05 45.42 45.33 44.38 44.25 43.92 43.78 42.76 42.86
29.85 27.54 26.65 31.89 36.52 36.21 38.31 39.58 44.18 46.04 47.16 48.57 48.81 51.14 52.86 53.00 55.06 56.96 58.44 58.63 58.34 58.44 58.67 59.17 59.47 58.76 59.72 59.27 58.48 54.60 51.77 49.26 48.60 48.35 48.05 48.05 47.39 46.53 45.19 44.01 42.88 42.97 42.65 43.09 43.73 43.02 41.25 40.57 41.60
28.14 26.48 26.56 27.25 33.07 36.44 36.65 36.84 39.07 43.33 45.91 47.97 50.74 52.08 54.19 52.63 53.80 56.06 57.22 58.25 58.62 58.52 58.75 59.25 59.44 58.82 59.48 58.23 51.65 49.17 48.01 47.40 46.54 45.73 45.06 45.11 45.50 45.27 44.59 43.14 42.54 41.97 41.78 40.70 40.99 42.43 41.94 39.22 38.77
24.21 31.09 30.39 30.55 30.20 26.69 37.65 27.91 36.74 40.06 41.85 44.71 47.03 52.13 53.65 53.67 54.19 56.04 56.56 57.41 58.24 58.72 59.65 59.88 59.11 59.24 59.08 54.57 52.46 51.58 51.63 48.84 47.71 45.42 43.76 43.28 43.79 43.22 42.61 41.65 41.20 40.61 39.79 39.17 39.58 39.91 41.14 40.79 37.95
27.78 32.52 30.23 31.29 29.33 29.10 29.86 31.47 34.22 39.63 38.39 41.69 45.31 49.79 53.90 54.95 54.00 55.30 56.33 57.31 58.30 59.00 59.15 59.72 58.82 59.21 55.66 55.41 54.22 53.73 51.83 47.19 45.61 43.06 41.82 41.52 41.72 41.86 41.15 40.70 39.76 38.71 38.31 38.06 38.37 37.99 37.26 37.80 37.54
34.36 31.25 32.47 31.30 30.08 22.70 28.15 32.14 30.82 36.99 39.60 42.14 45.01 47.98 53.40 54.97 54.31 55.10 56.86 57.68 57.74 58.71 58.91 58.56 58.22 58.72 55.85 54.82 54.39 53.97 47.42 43.59 42.80 41.29 40.27 40.07 39.69 39.40 39.77 39.23 38.68 38.07 38.01 37.53 37.10 35.65 35.53 34.95 34.66
32.50 28.67 21.54 19.50 19.51 20.74 31.34 30.85 33.55 38.28 43.05 44.90 45.75 47.76 52.87 55.16 54.38 53.96 54.77 55.91 56.73 56.77 57.74 57.71 57.84 57.00 55.57 54.27 53.74 51.78 48.43 45.86 44.14 41.38 39.85 38.30 37.85 38.24 38.36 38.44 37.41 37.29 36.80 35.65 34.88 34.06 34.19 33.84 33.22
28.70 27.32 23.32 18.01 20.88 24.60 34.51 29.61 33.49 41.00 43.94 45.59 47.29 49.89 53.92 54.66 55.08 54.11 54.31 54.99 55.23 55.94 56.74 57.34 57.39 55.67 55.11 54.46 52.45 49.25 46.19 44.90 42.72 40.78 39.42 38.75 38.78 38.11 38.28 37.66 37.10 36.26 35.07 33.48 33.14 33.30 32.56 32.75 32.04
30.05 25.99 31.93 28.18 29.27 23.95 29.30 35.60 39.23 40.66 41.85 44.42 45.80 49.31 53.26 54.52 55.22 53.88 53.91 54.16 54.18 54.81 55.59 56.53 56.95 55.12 53.44 51.05 47.02 44.87 43.32 42.23 40.49 39.83 39.64 38.37 38.55 37.76 36.84 36.45 35.49 34.59 33.29 33.15 32.93 32.44 31.55 31.53 31.13
34.53 36.05 25.50 29.47 22.01 17.23 26.32 30.42 31.24 37.70 37.33 41.71 45.30 49.85 53.08 54.83 54.16 53.47 52.68 51.12 50.46 50.96 50.78 53.48 53.64 51.50 49.03 46.62 45.73 43.79 42.64 41.46 40.30 39.54 37.90 37.40 37.45 37.00 36.04 35.47 34.53 33.23 32.78 32.68 32.10 31.32 30.50 30.43 30.35
35.68 32.61 34.50 34.09 31.54 23.02 22.16 28.78 37.76 36.94 39.35 40.39 47.11 50.62 52.92 53.07 50.85 50.02 48.57 47.16 46.13 46.12 46.03 45.42 45.45 45.55 44.62 44.00 42.73 41.75 40.82 40.25 40.08 39.59 38.13 37.61 37.15 36.80 35.99 35.04 33.43 32.51 31.86 31.55 30.90 30.61 30.10 29.49 28.98
33.86 36.37 35.86 28.19 27.35 31.24 29.69 27.52 40.07 41.90 42.49 42.74 49.55 49.55 47.67 45.51 43.47 42.97 42.77 43.02 42.40 41.77 41.93 43.39 41.97 41.28 41.00 40.46 39.75 38.90 38.98 38.88 38.51 38.33 38.12 37.91 37.06 37.13 35.78 33.81 32.44 31.87 31.33 30.83 30.42 29.73 29.73 28.58 27.89
MSLP
1014.63 1014.33 1014.34 1014.65 1015.68 1015.43 1014.76 1014.14 1013.23 1012.54 1012.18 1012.13 1012.21 1012.51 1012.56 1012.67 1013.47 1014.34 1013.99 1014.17 1014.22 1014.60 1015.02 1015.52 1016.01 1016.44 1016.98 1017.37 1017.84 1018.19 1018.44 1018.81 1019.07 1019.34 1019.61 1019.83 1020.04 1020.41 1020.70 1020.88 1020.98 1021.06 1021.12 1021.20 1021.27 1021.39 1021.41 1021.46 1021.45
1014.62 1014.31 1014.57 1015.12 1015.50 1015.27 1014.40 1013.38 1012.86 1012.21 1011.97 1012.19 1012.39 1012.54 1012.72 1012.91 1013.28 1013.75 1014.10 1014.11 1014.22 1014.47 1015.05 1015.46 1015.99 1016.44 1017.06 1017.45 1017.82 1018.25 1018.59 1018.90 1019.18 1019.45 1019.76 1019.98 1020.31 1020.62 1020.81 1020.96 1021.06 1021.09 1021.17 1021.31 1021.42 1021.49 1021.50 1021.55 1021.54
1014.58 1014.50 1015.17 1015.29 1014.97 1014.55 1013.94 1012.86 1012.31 1011.82 1011.82 1012.24 1012.54 1012.65 1012.84 1013.19 1013.44 1013.66 1013.74 1013.97 1014.31 1014.71 1015.16 1015.56 1016.02 1016.43 1017.06 1017.51 1017.80 1018.20 1018.65 1018.97 1019.26 1019.51 1019.81 1020.11 1020.36 1020.62 1020.84 1020.97 1021.08 1021.16 1021.33 1021.47 1021.55 1021.65 1021.65 1021.66 1021.66
1014.89 1015.07 1015.53 1015.28 1014.63 1013.89 1013.18 1012.35 1011.94 1011.86 1011.95 1012.09 1012.49 1012.81 1013.23 1013.44 1013.40 1013.64 1013.82 1014.11 1014.53 1015.05 1015.39 1015.74 1016.08 1016.51 1017.00 1017.50 1017.82 1018.19 1018.62 1019.02 1019.35 1019.51 1019.78 1020.08 1020.46 1020.70 1020.83 1021.01 1021.18 1021.39 1021.57 1021.64 1021.67 1021.73 1021.74 1021.74 1021.70
1015.07 1015.39 1015.39 1015.04 1014.31 1013.47 1012.76 1011.98 1011.85 1011.72 1011.74 1011.98 1012.56 1012.97 1013.46 1013.51 1013.55 1013.67 1014.06 1014.35 1014.72 1015.34 1015.65 1016.00 1016.26 1016.57 1016.99 1017.48 1017.83 1018.20 1018.64 1019.02 1019.38 1019.65 1019.88 1020.17 1020.53 1020.81 1020.96 1021.19 1021.38 1021.57 1021.70 1021.76 1021.77 1021.78 1021.75 1021.78 1021.73
1015.30 1015.25 1015.01 1014.37 1013.81 1012.95 1012.12 1011.66 1011.51 1011.42 1011.47 1012.03 1012.51 1013.04 1013.60 1013.89 1013.67 1013.89 1014.39 1014.57 1014.85 1015.49 1015.78 1016.17 1016.48 1016.69 1017.02 1017.53 1017.87 1018.19 1018.55 1019.05 1019.47 1019.80 1020.06 1020.36 1020.65 1020.87 1021.06 1021.27 1021.45 1021.59 1021.72 1021.74 1021.76 1021.80 1021.79 1021.73 1021.71
1015.24 1014.87 1013.80 1013.66 1013.29 1012.59 1011.85 1011.33 1011.46 1011.27 1011.30 1011.61 1011.87 1012.79 1013.61 1013.96 1013.80 1014.13 1014.67 1014.87 1015.17 1015.58 1015.91 1016.22 1016.56 1016.86 1017.16 1017.49 1018.02 1018.34 1018.69 1019.16 1019.61 1019.93 1020.22 1020.51 1020.76 1020.94 1021.14 1021.33 1021.49 1021.60 1021.68 1021.67 1021.71 1021.71 1021.66 1021.61 1021.64
1014.92 1014.45 1013.32 1012.68 1012.52 1011.97 1011.48 1011.22 1010.99 1010.98 1011.26 1011.46 1011.68 1012.25 1012.96 1013.06 1013.78 1014.50 1014.94 1015.16 1015.50 1015.70 1016.00 1016.25 1016.64 1016.88 1017.26 1017.68 1018.08 1018.41 1018.83 1019.29 1019.68 1020.05 1020.32 1020.58 1020.78 1020.97 1021.18 1021.36 1021.50 1021.59 1021.63 1021.62 1021.58 1021.53 1021.51 1021.55 1021.67
1014.66 1013.93 1011.86 1011.59 1011.74 1011.92 1011.52 1011.21 1010.88 1010.87 1011.20 1011.55 1011.56 1011.92 1012.18 1012.73 1013.87 1014.38 1014.80 1015.28 1015.61 1015.83 1016.21 1016.37 1016.74 1017.08 1017.34 1017.82 1018.28 1018.66 1018.98 1019.39 1019.75 1020.14 1020.44 1020.70 1020.86 1021.00 1021.18 1021.39 1021.51 1021.51 1021.52 1021.54 1021.48 1021.46 1021.55 1021.66 1021.80
1014.51 1012.86 1011.43 1011.52 1011.23 1011.22 1011.41 1011.39 1010.97 1011.05 1011.23 1011.57 1011.83 1012.34 1012.64 1012.89 1013.66 1013.87 1014.19 1014.79 1015.37 1015.66 1016.15 1016.47 1016.80 1017.16 1017.52 1017.92 1018.41 1018.80 1019.19 1019.48 1019.78 1020.09 1020.40 1020.62 1020.88 1021.04 1021.14 1021.32 1021.40 1021.40 1021.47 1021.48 1021.51 1021.67 1021.86 1021.87 1021.95
1013.99 1012.26 1012.14 1011.63 1011.23 1011.05 1011.11 1011.18 1011.00 1010.87 1011.03 1010.93 1011.13 1012.04 1012.81 1013.04 1013.41 1013.94 1013.98 1014.50 1015.27 1015.69 1016.11 1016.49 1016.81 1017.24 1017.57 1018.00 1018.56 1019.02 1019.31 1019.58 1019.92 1020.14 1020.30 1020.59 1020.83 1021.07 1021.13 1021.20 1021.21 1021.23 1021.37 1021.46 1021.67 1021.92 1022.13 1022.28 1022.27
1014.79 1013.42 1012.84 1012.10 1011.61 1011.41 1010.93 1010.79 1010.65 1010.58 1010.30 1010.26 1010.61 1011.27 1012.23 1012.66 1012.73 1013.26 1013.73 1014.37 1015.17 1015.74 1016.13 1016.56 1016.83 1017.30 1017.65 1018.07 1018.51 1018.96 1019.34 1019.62 1019.86 1020.07 1020.26 1020.44 1020.72 1020.87 1021.00 1021.08 1021.10 1021.18 1021.45 1021.70 1021.99 1022.24 1022.44 1022.51 1022.63
1014.88 1014.32 1013.35 1012.89 1012.40 1011.51 1011.12 1010.66 1010.50 1010.17 1009.99 1010.30 1010.44 1011.38 1011.85 1012.12 1012.62 1013.02 1013.22 1014.23 1015.04 1015.62 1016.21 1016.58 1016.90 1017.25 1017.67 1018.02 1018.46 1018.87 1019.23 1019.50 1019.63 1019.85 1020.02 1020.16 1020.45 1020.64 1020.72 1020.92 1021.17 1021.50 1021.66 1021.94 1022.28 1022.51 1022.64 1022.80 1022.99
1015.36 1014.87 1014.08 1013.35 1012.34 1011.74 1011.37 1010.89 1010.73 1009.91 1009.85 1010.28 1010.58 1011.05 1011.63 1011.77 1012.22 1012.81 1013.05 1013.58 1014.72 1015.26 1016.12 1016.59 1017.07 1017.23 1017.65 1018.00 1018.34 1018.63 1019.06 1019.31 1019.52 1019.69 1019.88 1020.03 1020.12 1020.32 1020.65 1021.16 1021.60 1021.84 1022.06 1022.28 1022.58 1022.86 1023.08 1023.30 1023.42
1015.82 1015.29 1014.26 1012.72 1012.69 1011.67 1011.34 1010.28 1009.17 1009.95 1009.73 1010.03 1010.21 1010.60 1011.24 1011.53 1011.89 1012.05 1012.64 1012.91 1013.87 1014.91 1015.79 1016.41 1016.88 1017.32 1017.54 1017.88 1018.23 1018.54 1018.81 1019.12 1019.35 1019.56 1019.72 1019.87 1019.99 1020.21 1020.73 1021.34 1021.87 1022.16 1022.35 1022.58 1022.94 1023.25 1023.39 1023.60 1024.11
1016.16 1015.37 1014.15 1012.41 1011.84 1011.80 1011.67 1007.99 1008.76 1009.36 1009.67 1009.79 1009.84 1010.23 1010.65 1011.12 1011.00 1011.73 1012.49 1012.85 1013.48 1014.32 1015.16 1016.09 1016.72 1017.15 1017.49 1017.73 1018.07 1018.40 1018.66 1018.93 1019.17 1019.40 1019.58 1019.64 1019.94 1020.35 1020.89 1021.46 1022.02 1022.38 1022.54 1022.76 1023.04 1023.41 1023.71 1024.19 1024.66
1016.20 1015.04 1013.91 1012.60 1011.63 1011.04 1010.22 1008.49 1008.49 1008.31 1008.78 1009.05 1009.40 1009.60 1009.96 1010.43 1011.01 1011.53 1012.05 1012.39 1013.10 1013.82 1014.54 1015.67 1016.36 1016.75 1017.25 1017.62 1017.94 1018.27 1018.59 1018.84 1019.14 1019.45 1019.70 1019.86 1020.15 1020.53 1021.06 1021.74 1022.23 1022.46 1022.69 1022.99 1023.23 1023.76 1023.84 1024.47 1025.17
1015.41 1014.93 1013.86 1012.53 1011.22 1010.74 1009.38 1008.79 1008.55 1008.24 1008.06 1008.21 1008.54 1008.72 1009.21 1009.64 1009.99 1010.51 1011.24 1011.85 1012.73 1013.35 1014.04 1015.13 1015.85 1016.36 1016.91 1017.35 1017.82 1018.48 1018.88 1019.21 1019.44 1019.69 1019.96 1020.02 1020.53 1020.91 1021.33 1021.91 1022.24 1022.51 1022.83 1023.26 1023.52 1023.85 1024.39 1024.82 1025.38
1015.64 1015.17 1014.16 1012.65 1011.65 1010.89 1009.17 1008.99 1008.03 1007.93 1007.85 1007.84 1007.91 1008.15 1008.39 1008.89 1008.99 1009.91 1010.70 1011.59 1012.14 1012.97 1013.57 1014.42 1015.24 1015.79 1016.51 1017.06 1017.67 1018.48 1018.83 1019.53 1019.92 1019.97 1020.21 1020.39 1020.88 1021.19 1021.49 1022.06 1022.43 1022.69 1023.00 1023.35 1023.63 1024.22 1024.75 1025.52 1025.88
1015.21 1014.73 1013.79 1012.85 1011.82 1011.34 1009.76 1008.34 1007.61 1007.18 1006.58 1006.94 1007.08 1007.30 1007.62 1008.15 1008.74 1009.07 1009.78 1010.62 1011.22 1012.03 1012.96 1013.77 1014.54 1015.28 1015.98 1016.57 1017.10 1017.92 1018.77 1019.70 1020.01 1020.36 1020.65 1020.75 1021.03 1021.31 1021.66 1022.12 1022.61 1022.92 1023.27 1023.63 1023.85 1024.14 1025.00 1025.69 1025.96
1014.14 1013.85 1013.34 1013.00 1011.82 1010.77 1009.98 1008.21 1007.81 1006.84 1006.52 1006.19 1006.20 1006.41 1006.81 1007.04 1007.48 1008.32 1009.15 1009.84 1010.54 1011.25 1012.03 1012.95 1013.93 1014.80 1015.55 1016.22 1016.98 1018.06 1019.01 1019.73 1020.31 1020.71 1020.95 1021.20 1021.40 1021.67 1021.93 1022.38 1022.76 1023.14 1023.30 1023.64 1023.83 1024.05 1024.33 1025.11 1026.03
1013.02 1012.12 1012.49 1012.39 1012.07 1010.61 1009.12 1007.22 1006.64 1005.95 1005.68 1005.29 1005.28 1005.49 1005.75 1006.24 1006.75 1007.27 1007.91 1009.17 1009.62 1010.46 1011.44 1012.38 1013.46 1014.28 1015.08 1015.81 1016.55 1017.20 1017.98 1019.06 1019.72 1020.28 1020.95 1021.30 1021.61 1021.90 1022.11 1022.49 1022.91 1023.24 1023.63 1023.83 1023.98 1024.12 1024.17 1024.48 1025.38
1010.92 1011.59 1011.58 1011.76 1011.61 1011.49 1009.08 1007.58 1004.89 1004.96 1004.48 1003.83 1004.01 1004.35 1004.73 1005.27 1005.82 1006.61 1007.27 1008.00 1008.91 1010.14 1010.89 1011.81 1012.92 1013.80 1014.63 1015.19 1015.82 1016.67 1017.61 1018.49 1019.26 1020.30 1020.96 1021.50 1021.87 1022.05 1022.42 1022.60 1023.06 1023.38 1023.75 1024.06 1024.16 1024.35 1024.38 1024.71 1025.13
1010.64 1011.29 1010.94 1011.11 1011.18 1010.35 1007.43 1006.97 1004.45 1003.26 1002.45 1002.79 1002.81 1003.09 1003.51 1004.20 1005.00 1005.96 1006.84 1007.94 1008.82 1009.92 1010.53 1011.56 1012.31 1013.24 1014.07 1014.65 1015.26 1015.98 1016.97 1018.13 1019.38 1020.19 1020.96 1021.56 1022.14 1022.43 1022.59 1022.78 1023.09 1023.49 1023.85 1024.30 1024.44 1024.81 1024.62 1024.96 1025.19
1010.53 1010.70 1010.05 1009.87 1010.14 1007.73 1005.40 1006.27 1003.36 1002.08 1001.44 1001.24 1001.24 1001.79 1002.43 1003.30 1004.29 1005.27 1006.54 1007.67 1008.41 1009.42 1009.97 1010.97 1011.83 1012.80 1013.63 1014.23 1014.93 1015.74 1016.50 1017.41 1018.39 1019.39 1020.34 1021.31 1021.99 1022.48 1022.66 1022.90 1023.41 1023.76 1023.88 1024.61 1024.50 1025.01 1025.14 1025.36 1025.61
1008.53 1009.00 1007.59 1008.00 1007.36 1005.78 1004.96 1003.70 1002.09 1001.58 1001.28 1001.03 1001.05 1001.35 1001.99 1002.58 1003.30 1004.39 1005.51 1006.67 1007.62 1008.63 1009.40 1010.29 1011.28 1012.41 1013.23 1013.87 1014.72 1015.55 1016.40 1017.47 1018.39 1019.23 1020.09 1020.82 1021.36 1022.04 1022.63 1023.24 1023.42 1024.08 1024.61 1024.43 1024.80 1025.27 1025.65 1025.85 1026.06
1007.69 1007.41 1005.28 1006.55 1005.60 1005.18 1004.15 1003.28 1001.89 1001.36 1001.23 1001.08 1000.97 1001.02 1001.37 1002.07 1003.02 1004.14 1005.12 1006.32 1007.62 1008.31 1009.08 1009.83 1010.79 1012.00 1012.94 1013.70 1014.77 1015.62 1016.44 1017.37 1018.24 1019.23 1020.15 1020.81 1021.63 1021.86 1022.35 1023.17 1023.98 1024.34 1024.84 1024.96 1024.91 1025.30 1025.78 1026.14 1026.36
1005.86 1005.87 1006.35 1006.36 1004.33 1004.27 1003.74 1003.20 1001.82 1001.55 1001.45 1000.91 1000.70 1000.67 1001.30 1002.05 1003.07 1004.42 1005.48 1006.60 1007.46 1008.29 1009.42 1010.07 1010.91 1011.73 1012.83 1013.80 1014.69 1015.53 1016.47 1017.42 1018.36 1019.30 1020.22 1021.03 1022.00 1022.41 1023.01 1023.22 1023.98 1024.70 1024.88 1024.89 1025.33 1025.64 1026.11 1026.28 1026.55
1005.05 1005.21 1004.88 1004.34 1004.07 1003.71 1003.19 1002.58 1002.39 1002.31 1001.99 1001.37 1000.56 1000.98 1001.54 1002.66 1003.76 1004.76 1006.02 1006.82 1006.90 1009.09 1010.24 1011.06 1011.82 1012.40 1013.35 1014.16 1015.15 1016.05 1017.03 1018.00 1018.79 1019.55 1020.57 1021.71 1022.28 1022.48 1023.15 1023.56 1024.16 1024.51 1024.79 1025.18 1025.26 1025.60 1026.05 1026.45 1026.63
1005.55 1004.39 1003.95 1004.02 1004.07 1003.67 1003.78 1003.24 1002.82 1002.47 1002.08 1001.79 1001.35 1002.09 1002.94 1004.08 1005.15 1006.04 1007.11 1008.00 1008.46 1010.04 1010.69 1011.85 1012.51 1013.27 1014.14 1014.80 1015.65 1016.64 1017.48 1018.53 1019.64 1020.40 1020.83 1022.21 1022.25 1022.50 1023.29 1023.94 1024.09 1024.36 1024.72 1024.94 1025.15 1025.44 1025.91 1026.35 1026.56
Wind_Speed
7 5 1 3 1 2 3 6 2 4 2 0 3 5 6 2 6 4 1 6 12 18 16 16 17 17 20 20 18 18 18 17 16 16 15 15 14 12 12 11 11 10 10 10 10 10 10 9 9
5 1 3 2 2 3 4 4 6 4 3 5 3 1 2 3 2 5 9 7 16 17 15 15 16 18 19 20 19 18 17 17 16 16 15 14 13 12 12 11 10 10 10 9 9 9 8 8 7
5 1 2 3 3 7 4 6 4 3 4 3 3 1 2 1 1 9 2 16 16 15 14 13 14 18 20 20 19 19 17 16 16 16 15 14 13 12 11 10 9 9 8 8 8 7 7 7 7
2 2 2 3 8 5 5 3 5 1 3 0 1 2 1 2 4 4 14 16 17 13 13 14 15 18 19 19 18 19 19 17 16 15 15 14 13 12 11 10 8 8 6 6 6 6 7 6 6
2 2 3 4 6 4 5 4 3 3 4 3 5 2 1 2 4 12 13 15 17 12 11 12 14 17 18 19 19 19 17 17 15 14 14 14 12 10 10 8 7 6 5 5 5 5 5 6 6
1 2 4 8 6 4 6 6 2 3 3 3 3 5 2 2 11 11 11 14 14 13 11 11 11 13 16 18 17 17 17 16 14 14 12 13 11 10 8 7 6 5 3 3 4 4 5 6 7
3 4 10 10 5 7 6 4 4 4 4 5 6 7 2 6 10 10 10 12 12 12 11 10 12 12 12 13 13 13 15 15 13 12 11 10 9 8 7 6 4 3 2 3 3 3 4 5 7
3 3 15 12 11 12 4 4 2 5 4 3 3 5 5 11 13 10 10 12 12 11 10 9 10 11 11 12 13 13 13 12 11 10 10 9 9 8 6 4 2 1 1 2 2 2 2 5 8
3 9 17 19 16 10 3 6 2 2 5 2 5 3 2 17 15 13 11 12 10 8 9 11 10 10 11 11 8 11 12 11 11 9 8 7 4 5 4 2 1 1 1 2 4 5 8 7 9
9 10 20 13 12 9 8 6 6 5 4 3 2 3 11 17 16 19 16 15 13 12 10 9 11 11 10 8 9 9 8 7 7 7 7 5 4 3 3 2 2 1 1 3 8 10 9 6 5
5 18 9 13 9 8 9 6 4 5 4 6 6 8 14 16 15 18 15 15 14 11 8 10 10 10 10 8 6 4 4 5 5 7 6 5 3 2 2 1 1 1 3 3 5 6 5 6 4
14 12 5 12 9 5 7 4 8 9 7 6 4 14 16 19 19 17 16 15 14 12 10 10 10 10 9 6 6 6 5 5 5 5 6 4 3 3 3 2 1 3 3 5 5 4 5 6 7
14 16 18 14 13 13 7 12 9 8 9 5 8 13 17 16 16 15 15 14 13 12 10 10 10 10 9 9 6 7 6 5 6 6 6 5 4 4 3 3 4 4 4 4 5 5 5 6 8
10 14 16 13 14 11 11 15 8 9 9 6 10 12 14 16 17 13 15 16 14 13 11 10 10 10 10 8 9 7 6 6 5 5 5 6 5 4 4 4 4 5 5 5 5 5 5 5 8
7 12 16 21 11 12 2 17 24 7 6 9 9 10 12 15 17 18 16 17 16 12 13 12 11 10 10 10 8 7 6 6 5 5 7 6 6 4 5 5 5 4 5 7 6 6 6 8 9
7 7 11 6 14 10 9 26 12 18 12 11 11 10 13 15 19 16 16 16 16 15 15 13 11 11 11 9 7 6 6 6 5 5 5 6 6 7 6 5 5 4 5 5 5 5 8 8 9
6 10 12 10 15 7 19 16 13 13 18 19 13 12 14 15 14 14 17 18 17 17 16 14 14 12 12 8 7 6 6 5 4 4 4 6 6 7 6 5 5 6 5 5 5 4 6 9 9
8 8 11 12 6 18 24 20 15 6 13 18 15 15 16 16 20 17 16 16 16 17 17 16 12 13 11 8 7 5 5 5 4 4 4 7 5 7 6 5 6 6 6 5 6 8 7 8 9
10 14 14 14 12 14 17 19 18 16 8 13 12 13 15 16 13 14 16 16 16 15 16 17 16 13 10 8 7 5 6 4 4 5 6 7 6 6 7 5 6 5 6 6 7 7 11 7 7
16 16 19 18 17 14 18 14 18 13 20 15 14 16 16 14 15 14 15 17 18 17 16 17 16 14 12 8 7 4 5 3 4 4 5 6 6 6 6 6 5 6 5 6 4 4 4 3 0
19 19 19 16 15 18 17 14 13 10 12 11 12 14 16 18 19 18 18 20 18 18 19 17 16 15 13 11 9 7 7 5 4 4 4 4 6 6 6 6 6 6 5 5 4 5 6 5 2
20 19 19 16 6 9 12 10 14 20 16 14 17 14 17 18 18 19 20 18 19 17 16 17 15 16 13 15 11 16 8 7 4 4 5 5 6 7 6 7 6 6 4 6 4 4 4 5 5
18 12 16 14 15 12 20 9 14 13 16 20 18 18 17 18 19 19 21 21 18 17 17 16 16 16 15 15 14 12 10 4 7 7 9 7 6 6 6 6 7 6 5 5 5 5 4 2 4
6 14 7 12 7 13 23 14 5 12 18 13 16 21 21 19 19 19 19 17 17 15 16 15 17 16 16 14 14 14 14 12 9 9 7 6 5 4 6 7 6 6 6 5 5 4 7 6 6
17 5 4 3 4 15 14 15 15 6 10 18 20 23 22 21 20 19 19 19 17 17 18 16 18 15 15 15 14 13 13 14 15 13 9 10 6 4 7 7 5 4 6 4 6 5 6 5 5
21 19 4 7 10 4 7 10 7 8 6 5 6 17 18 21 20 21 21 19 19 20 19 18 18 15 14 14 12 10 12 8 8 9 9 7 7 7 6 4 6 6 4 5 6 4 4 5 5
14 17 19 6 4 4 4 3 10 6 5 7 10 19 22 22 21 21 20 18 17 17 17 17 17 14 14 13 11 11 11 12 11 11 9 7 6 6 8 7 6 5 5 5 6 5 5 5 4
6 8 4 7 3 3 6 3 7 2 5 8 14 20 20 19 20 16 16 14 10 9 7 10 12 14 12 12 11 11 12 12 12 11 9 9 6 7 7 8 5 6 6 6 5 5 5 5 4
6 8 9 4 2 3 3 3 1 5 9 11 14 17 17 15 12 13 11 11 13 11 9 10 10 13 12 11 10 11 10 10 11 10 10 8 8 8 7 6 8 7 6 6 6 5 6 6 5
5 2 2 3 3 1 0 4 6 8 10 7 9 11 11 13 12 12 11 11 12 11 11 9 9 9 10 11 13 12 13 12 9 8 8 6 7 6 5 6 6 6 6 6 6 7 6 7 7
Wind_Direction
329 329 60 47 78 59 202 244 263 267 285 202 117 154 202 127 168 195 3 179 147 149 151 149 151 152 148 136 138 135 134 134 133 132 134 133 130 125 119 116 110 104 96 92 87 83 77 69 62
314 345 43 91 156 193 235 233 227 236 214 140 129 125 174 214 105 120 131 174 154 148 152 150 152 146 146 142 141 137 137 137 136 136 133 130 130 129 125 118 113 105 97 90 85 80 76 67 58
298 59 109 184 194 210 214 222 220 267 151 197 150 115 127 239 128 165 196 154 148 149 149 149 146 145 148 146 145 138 140 140 140 140 137 136 137 130 127 125 119 104 94 88 81 73 66 57 48
332 20 47 192 222 247 211 216 187 211 158 70 182 159 105 285 166 182 144 148 145 145 148 148 144 147 150 152 146 143 144 143 145 142 143 144 137 136 135 111 113 101 92 86 80 67 56 49 44
30 75 220 216 230 239 239 229 228 221 183 171 154 214 342 34 133 146 144 152 152 147 148 152 149 148 153 157 150 149 148 147 148 148 147 142 142 138 134 119 114 104 91 78 69 63 58 49 40
255 131 206 223 223 228 229 230 202 213 176 152 143 140 193 202 142 148 148 152 152 149 147 157 156 149 155 160 158 156 144 145 149 152 148 142 142 138 132 126 118 112 101 85 76 67 58 50 41
214 203 228 227 207 238 236 190 222 215 185 217 140 153 143 188 156 141 146 143 138 146 153 151 161 153 150 151 152 142 138 142 147 149 148 142 140 137 127 117 119 123 124 105 91 79 64 52 40
218 243 233 213 216 242 221 197 234 177 213 82 155 182 189 179 150 137 134 139 146 152 158 146 145 148 146 147 139 136 132 135 138 141 136 137 136 130 129 124 129 161 113 76 60 39 42 68 54
214 240 236 223 212 220 257 198 216 144 128 237 169 136 135 137 142 148 139 153 154 155 158 150 139 142 141 139 139 132 134 138 140 137 132 128 138 139 144 160 203 227 41 22 0 31 56 77 66
210 233 239 247 229 198 211 214 189 167 153 220 175 64 134 147 163 166 163 166 170 163 162 151 147 145 140 141 142 140 139 146 148 148 147 145 147 155 163 202 241 272 354 50 75 64 58 56 62
257 242 255 260 271 189 205 198 222 171 203 204 200 152 168 166 171 178 169 170 172 166 161 157 150 150 147 146 141 142 145 146 151 153 150 151 151 173 187 188 195 176 99 84 75 68 60 58 58
264 273 279 267 270 272 243 203 228 203 209 147 224 158 166 180 180 178 172 169 175 172 169 155 151 156 149 146 151 152 155 156 158 162 159 158 162 173 182 183 153 99 88 89 79 76 74 72 70
268 278 285 281 275 271 276 242 220 218 223 155 118 152 177 183 185 177 166 167 178 178 173 166 162 161 158 153 156 160 164 167 163 167 169 160 168 184 176 139 102 89 89 84 82 79 78 78 74
300 302 295 291 282 259 263 261 220 225 212 177 156 169 181 185 184 174 171 165 178 173 184 169 176 169 164 166 167 166 166 166 171 170 175 174 176 178 131 108 91 81 82 86 84 76 81 78 86
286 286 286 275 263 255 323 256 234 219 218 201 189 180 179 190 179 187 181 168 165 181 182 180 177 176 172 175 172 169 170 171 175 181 181 180 178 136 117 109 92 94 99 99 93 83 87 90 84
289 263 271 261 260 236 216 255 232 209 217 213 195 187 183 188 194 186 185 175 171 173 184 177 185 181 179 177 174 174 171 174 180 179 180 170 123 124 110 106 103 106 100 108 102 95 90 90 90
211 260 255 269 239 247 217 259 228 196 211 219 205 195 189 192 188 194 185 181 177 176 172 183 188 178 181 176 170 165 164 159 146 133 125 119 102 103 109 108 111 121 107 89 104 87 106 106 100
222 229 245 244 237 223 251 244 248 235 204 217 213 200 193 187 193 192 187 178 176 177 176 181 180 179 175 165 146 122 113 105 104 109 107 98 101 107 107 106 114 123 114 105 96 109 91 109 112
259 266 275 267 287 279 247 248 237 223 218 219 217 208 201 194 198 175 177 176 169 173 171 179 181 178 167 156 148 150 141 130 108 96 93 102 106 113 115 112 117 124 128 128 116 108 111 104 116
240 248 255 271 271 274 266 257 248 221 226 220 214 210 201 186 169 170 173 172 179 174 177 176 182 174 172 166 154 137 137 110 112 101 92 97 112 117 119 123 118 124 123 131 136 136 126 102 32
230 232 246 244 273 281 274 263 244 251 235 228 214 212 199 187 179 176 180 180 177 177 177 176 178 173 173 155 117 104 96 98 110 115 109 101 110 108 108 111 119 120 123 128 135 151 143 140 76
240 220 229 243 241 259 206 246 218 231 227 220 222 205 197 191 188 182 178 184 181 181 174 175 171 174 167 157 152 160 160 156 164 142 129 119 116 117 113 114 113 109 108 113 122 141 142 131 148
236 195 215 213 227 271 269 228 242 205 226 223 211 206 199 192 183 185 187 186 183 175 175 176 171 172 165 170 168 169 154 118 130 127 133 128 116 110 113 113 116 109 107 108 108 113 109 106 137
210 262 236 214 218 247 247 239 225 205 208 214 208 206 198 185 183 184 186 179 181 179 168 171 171 173 174 172 167 165 155 142 145 145 142 138 126 116 117 116 117 119 113 112 101 92 99 107 104
202 216 212 148 175 245 224 212 240 230 203 202 202 199 192 180 175 175 176 180 174 177 175 173 176 173 176 170 168 166 161 160 164 159 153 147 146 142 144 133 122 118 114 110 104 110 108 108 116
194 193 191 190 186 192 175 199 228 238 195 217 228 195 182 178 175 174 174 174 177 180 178 176 178 171 175 170 166 154 148 149 148 150 149 149 154 137 132 121 111 124 116 121 116 107 103 110 112
163 204 228 317 183 112 183 280 302 220 247 227 218 186 186 178 176 170 166 171 173 171 173 174 172 169 168 159 147 144 140 144 144 137 137 130 129 131 123 121 107 111 133 139 134 133 126 126 136
251 138 124 223 169 227 193 215 236 137 298 270 202 186 184 174 169 160 152 146 132 125 133 145 155 155 150 141 143 143 140 137 137 133 126 115 116 110 129 130 138 153 171 147 141 133 142 151 157
165 170 225 175 263 216 167 207 62 289 282 300 183 177 173 159 143 136 129 118 103 101 98 104 114 127 126 124 121 121 120 122 123 117 117 140 141 132 148 152 177 170 161 166 151 161 166 178 174
241 88 211 112 242 308 82 271 351 298 261 236 169 124 109 112 111 108 112 110 107 113 105 113 104 106 112 116 112 111 108 106 100 107 110 163 147 142 156 178 167 167 174 175 178 175 185 196 198